Terminal Aerodrome Forecast
Issued by NWS Houston/Galveston, TX

Home | Current Version | Previous Version | Text Only | Print | Product List | Glossary On
Versions: 1 2 3 4 5 6 7 8 9 10 11 12 13 14 15 16 17 18 19 20 21 22 23 24 25 26 27 28 29 30 31 32 33 34 35 36 37 38 39
000
FTUS44 KHGX 260529
TAFGLS
TAF
KGLS 260529Z 2606/2706 17014KT P6SM FEW040
     FM261100 12011KT P6SM VCSH BKN030
     FM270200 12009KT 1SM BR SCT007 BKN010=

USA.gov is the U.S. government's official web portal to all federal, state and local government web resources and services.